NORTHEAST SUFFOLK  -  Winter Weather Advisory Winter Weather Advisory        NORTHERN NASSAU  -  Winter Weather Advisory Winter Weather Advisory        NORTHWEST SUFFOLK  -  Winter Weather Advisory Winter Weather Advisory        SOUTHEAST SUFFOLK  -  Winter Weather Advisory Winter Weather Advisory        SOUTHERN NASSAU  -  Winter Weather Advisory Winter Weather Advisory        SOUTHWEST SUFFOLK  -  Winter Weather Advisory Winter Weather Advisory      

Active alerts

Northern Nassau
  Details for Northern Nassau Winter Weather Advisory
Southern Nassau
  Details for Southern Nassau Winter Weather Advisory
Northwest Suffolk
  Details for Northwest Suffolk Winter Weather Advisory
Southwest Suffolk
  Details for Southwest Suffolk Winter Weather Advisory
Northeast Suffolk
  Details for Northeast Suffolk Winter Weather Advisory
Southeast Suffolk
  Details for Southeast Suffolk Winter Weather Advisory


WXM80 ListenWXM80 Stop

You find our weather info also at:

UK Metoffice

WeatherCloud

Weather Underground

Northeastern Weather Network

AWEKAS

Citizen Weather Observer Program (CWOP)

HAMweather, WeatherForYou, PWS Weather


Weather Underground History page Text

Daily Summary for November 1, 2017 Units:  Metric    English   Both
« Previous Day
Next Day »
Daily Weekly Monthly Yearly Custom
  High: Low: Average:
Temperature: 13.5 °C 4.8 °C 9.7 °C
Dew Point: 9.5 °C 2 °C 5.7 °C
Humidity: 92 % 64 % 77 %
Wind Speed: 5.5 km/h 0 km/h 0.5 km/h
Wind Gust: 14.8 km/h - -
Wind:- - South
Pressure: 1029.3 hPa 1025.3 hPa -
Precipitation: 0 mm    
Historical Graphs
 
 
Tabular Data for November 1, 2017
Time Temperature Dew Point Pressure Wind Wind Speed Wind Gust Humidity Rainfall Rate (Hourly)
00:03 9.1 °C 2.6 °C 1025.3 hPa West 2.9 km/h 5.6 km/h 64 % 0 mm
00:08 9.1 °C 2.8 °C 1025.6 hPa WSW 5.5 km/h 7.4 km/h 65 % 0 mm
00:13 9 °C 2.8 °C 1025.6 hPa WSW 3.5 km/h 5.6 km/h 65 % 0 mm
00:19 8.9 °C 2.7 °C 1025.6 hPa WSW 2.6 km/h 5.6 km/h 65 % 0 mm
00:24 8.9 °C 2.7 °C 1025.6 hPa West 0.3 km/h 5.6 km/h 65 % 0 mm
00:29 8.9 °C 2.7 °C 1026 hPa WSW 0.6 km/h 6.4 km/h 65 % 0 mm
00:34 8.8 °C 2.4 °C 1026 hPa WNW 5.1 km/h 13 km/h 64 % 0 mm
00:39 8.8 °C 2.4 °C 1026 hPa WNW 0.2 km/h 9.3 km/h 64 % 0 mm
00:44 8.8 °C 2.6 °C 1026 hPa Calm   3.7 km/h 65 % 0 mm
00:49 8.7 °C 2.5 °C 1025.6 hPa West 2.6 km/h 9.3 km/h 65 % 0 mm
00:54 8.7 °C 2.4 °C 1026 hPa WNW 3.1 km/h 14.8 km/h 65 % 0 mm
00:59 8.7 °C 2.4 °C 1025.6 hPa West 2.9 km/h 7.4 km/h 65 % 0 mm
01:04 8.6 °C 2.4 °C 1025.6 hPa WNW 0.5 km/h 5.6 km/h 65 % 0 mm
01:09 8.6 °C 2.3 °C 1026 hPa WNW 1.3 km/h 5.6 km/h 65 % 0 mm
01:14 8.6 °C 2.3 °C 1026 hPa West 0.8 km/h 7.4 km/h 65 % 0 mm
01:19 8.5 °C 2.3 °C 1026 hPa WNW 3.5 km/h 9.7 km/h 65 % 0 mm
01:24 8.4 °C 2.2 °C 1026 hPa WNW 2.1 km/h 12.9 km/h 65 % 0 mm
01:29 8.4 °C 2.2 °C 1026 hPa WNW 4 km/h 7.4 km/h 65 % 0 mm
01:34 8.4 °C 2.2 °C 1025.6 hPa NNW 1.9 km/h 5.6 km/h 65 % 0 mm
01:39 8.3 °C 2.3 °C 1026 hPa NW 0.8 km/h 1.9 km/h 66 % 0 mm
01:44 8.3 °C 2.3 °C 1026 hPa WNW 1.9 km/h 4.8 km/h 66 % 0 mm
01:49 8.3 °C 2.3 °C 1026 hPa WNW 1.6 km/h 1.9 km/h 66 % 0 mm
01:55 8.2 °C 2.2 °C 1026 hPa North 2.6 km/h 5.6 km/h 66 % 0 mm
02:00 8.2 °C 2.2 °C 1026.3 hPa West 2.1 km/h 4.8 km/h 66 % 0 mm
02:05 8.2 °C 2.2 °C 1026.6 hPa Calm   1.9 km/h 66 % 0 mm
02:10 8.1 °C 2.1 °C 1026.3 hPa WNW 0.3 km/h 7.4 km/h 66 % 0 mm
02:15 8.1 °C 2.3 °C 1026.3 hPa Calm     67 % 0 mm
02:20 8 °C 2.2 °C 1026.6 hPa Calm   1.9 km/h 67 % 0 mm
02:25 8 °C 2.2 °C 1026.6 hPa Calm   1.9 km/h 67 % 0 mm
02:30 7.9 °C 2.2 °C 1026.6 hPa Calm     67 % 0 mm
02:35 7.9 °C 2.3 °C 1026.6 hPa NW 1.4 km/h 6.4 km/h 68 % 0 mm
02:40 7.8 °C 2.2 °C 1026.6 hPa North 1.4 km/h 5.6 km/h 68 % 0 mm
02:45 7.7 °C 2.2 °C 1026.6 hPa Calm     68 % 0 mm
02:50 7.7 °C 2.1 °C 1026.6 hPa Calm     68 % 0 mm
02:55 7.6 °C 2.1 °C 1026.6 hPa WNW 1 km/h 6.4 km/h 68 % 0 mm
03:00 7.6 °C 2 °C 1026.6 hPa NNW 1.9 km/h 5.6 km/h 68 % 0 mm
03:05 7.5 °C 2.2 °C 1026.6 hPa NW 1.8 km/h 8 km/h 69 % 0 mm
03:10 7.4 °C 2.1 °C 1026.6 hPa North 3.2 km/h 7.4 km/h 69 % 0 mm
03:15 7.4 °C 2.1 °C 1026.6 hPa North 0.3 km/h 3.7 km/h 69 % 0 mm
03:20 7.4 °C 2.1 °C 1026.6 hPa North 0.2 km/h 5.6 km/h 69 % 0 mm
03:25 7.4 °C 2.1 °C 1026.6 hPa NNE 3.5 km/h 6.4 km/h 69 % 0 mm
03:30 7.4 °C 2.1 °C 1026.6 hPa NNE 0.5 km/h 1.9 km/h 69 % 0 mm
03:35 7.4 °C 2.3 °C 1026.6 hPa Calm   1.6 km/h 70 % 0 mm
03:40 7.4 °C 2.3 °C 1026.6 hPa NNW 0.8 km/h 3.7 km/h 70 % 0 mm
03:45 7.4 °C 2.4 °C 1026.6 hPa North 4.3 km/h 5.6 km/h 71 % 0 mm
03:50 7.3 °C 2.4 °C 1026.6 hPa Calm     71 % 0 mm
03:56 7.3 °C 2.6 °C 1026.3 hPa Calm   3.2 km/h 72 % 0 mm
04:01 7.3 °C 2.6 °C 1026.6 hPa Calm   3.7 km/h 72 % 0 mm
04:06 7.2 °C 2.7 °C 1026.6 hPa Calm   1.9 km/h 73 % 0 mm
04:11 7.2 °C 2.8 °C 1026.6 hPa Calm     74 % 0 mm
04:16 7.1 °C 2.8 °C 1026.6 hPa North 0.6 km/h 1.9 km/h 74 % 0 mm
04:21 6.9 °C 2.8 °C 1026.3 hPa Calm     75 % 0 mm
04:26 6.8 °C 2.7 °C 1026.3 hPa North 0.2 km/h 1.9 km/h 75 % 0 mm
04:31 6.7 °C 2.7 °C 1026.6 hPa Calm   1.9 km/h 76 % 0 mm
04:36 6.6 °C 2.6 °C 1026.3 hPa Calm   1.9 km/h 76 % 0 mm
04:41 6.4 °C 2.7 °C 1026.3 hPa Calm     77 % 0 mm
04:46 6.3 °C 2.7 °C 1026.3 hPa North 0.8 km/h 1.9 km/h 78 % 0 mm
04:48 6.3 °C 2.7 °C 1026.3 hPa Calm   1.9 km/h 78 % 0 mm
04:53 6.2 °C 2.8 °C 1026.3 hPa North 1.6 km/h 3.7 km/h 79 % 0 mm
04:58 6 °C 2.6 °C 1026.6 hPa North 1.3 km/h 1.9 km/h 79 % 0 mm
05:03 5.9 °C 2.7 °C 1026.6 hPa Calm     80 % 0 mm
05:08 5.8 °C 2.8 °C 1026.6 hPa North 0.2 km/h 1.9 km/h 81 % 0 mm
05:13 5.7 °C 2.7 °C 1026.6 hPa Calm   1.9 km/h 81 % 0 mm
05:18 5.7 °C 2.8 °C 1026.6 hPa Calm     82 % 0 mm
05:23 5.7 °C 3 °C 1026.6 hPa North 0.8 km/h 3.7 km/h 83 % 0 mm
05:24 5.7 °C 3 °C 1026.6 hPa Calm   3.7 km/h 83 % 0 mm
05:29 5.6 °C 2.9 °C 1026.6 hPa Calm     83 % 0 mm
05:34 5.6 °C 3.1 °C 1026.6 hPa Calm   1.9 km/h 84 % 0 mm
05:39 5.6 °C 3.1 °C 1026.6 hPa Calm     84 % 0 mm
05:44 5.5 °C 3 °C 1026.6 hPa Calm     84 % 0 mm
05:49 5.4 °C 2.9 °C 1027 hPa Calm   1.9 km/h 84 % 0 mm
05:54 5.4 °C 2.9 °C 1027 hPa Calm     84 % 0 mm
05:59 5.4 °C 2.9 °C 1027 hPa Calm     84 % 0 mm
06:04 5.3 °C 2.8 °C 1027 hPa Calm     84 % 0 mm
06:09 5.3 °C 2.8 °C 1027 hPa Calm     84 % 0 mm
06:14 5.2 °C 2.7 °C 1027.3 hPa Calm     84 % 0 mm
06:16 5.2 °C 2.8 °C 1027.3 hPa Calm     85 % 0 mm
06:21 5.1 °C 2.8 °C 1027.3 hPa Calm     85 % 0 mm
06:26 5.1 °C 2.7 °C 1027.3 hPa Calm     85 % 0 mm
06:31 5.1 °C 2.9 °C 1027.3 hPa Calm     86 % 0 mm
06:36 5 °C 2.8 °C 1027.3 hPa Calm     86 % 0 mm
06:41 4.9 °C 2.8 °C 1027.3 hPa Calm     86 % 0 mm
06:46 4.9 °C 2.9 °C 1027.3 hPa Calm     87 % 0 mm
06:51 4.9 °C 2.9 °C 1027.7 hPa Calm     87 % 0 mm
06:56 4.8 °C 2.8 °C 1027.7 hPa Calm     87 % 0 mm
07:02 4.8 °C 2.8 °C 1028 hPa North 0.2 km/h 1.6 km/h 87 % 0 mm
07:07 4.8 °C 3 °C 1028 hPa Calm     88 % 0 mm
07:12 4.8 °C 2.9 °C 1028 hPa Calm     88 % 0 mm
07:17 4.8 °C 2.9 °C 1027.7 hPa Calm     88 % 0 mm
07:21 4.8 °C 2.9 °C 1028 hPa Calm     88 % 0 mm
07:26 4.8 °C 2.9 °C 1028 hPa Calm     88 % 0 mm
07:32 4.8 °C 2.9 °C 1028 hPa Calm     88 % 0 mm
07:37 4.8 °C 2.9 °C 1028 hPa Calm     88 % 0 mm
07:42 4.8 °C 3.1 °C 1028 hPa Calm     89 % 0 mm
07:47 4.8 °C 3.2 °C 1028 hPa Calm     89 % 0 mm
07:52 4.9 °C 3.2 °C 1028 hPa Calm     89 % 0 mm
07:57 4.9 °C 3.3 °C 1028.3 hPa Calm     89 % 0 mm
08:02 5 °C 3.5 °C 1028.7 hPa Calm     90 % 0 mm
08:07 5.1 °C 3.8 °C 1028.7 hPa Calm     91 % 0 mm
08:12 5.2 °C 3.9 °C 1028.7 hPa Calm     91 % 0 mm
08:17 5.3 °C 4 °C 1028.7 hPa Calm     91 % 0 mm
08:22 5.4 °C 4.1 °C 1028.7 hPa Calm     91 % 0 mm
08:27 5.6 °C 4.3 °C 1029 hPa Calm     92 % 0 mm
08:32 5.7 °C 4.3 °C 1029 hPa Calm     91 % 0 mm
08:37 5.8 °C 4.6 °C 1029 hPa Calm     92 % 0 mm
08:42 5.9 °C 4.7 °C 1029 hPa Calm     92 % 0 mm
08:47 6 °C 4.7 °C 1029 hPa Calm     91 % 0 mm
08:52 6.2 °C 4.8 °C 1029.3 hPa Calm     91 % 0 mm
08:57 6.3 °C 4.9 °C 1029.3 hPa Calm     91 % 0 mm
09:02 6.4 °C 5 °C 1029 hPa Calm     91 % 0 mm
09:07 6.6 °C 5.2 °C 1029.3 hPa Calm     91 % 0 mm
09:12 6.7 °C 5.3 °C 1029.3 hPa Calm     91 % 0 mm
09:17 6.9 °C 5.6 °C 1029.3 hPa Calm     91 % 0 mm
09:22 7.1 °C 5.7 °C 1029.3 hPa Calm     91 % 0 mm
09:27 7.3 °C 5.7 °C 1029.3 hPa Calm     90 % 0 mm
09:32 7.5 °C 5.8 °C 1029.3 hPa Calm     89 % 0 mm
09:37 7.7 °C 5.8 °C 1029.3 hPa Calm   1.9 km/h 88 % 0 mm
09:42 7.9 °C 5.8 °C 1029.3 hPa SE 1 km/h 5.6 km/h 87 % 0 mm
09:47 8.1 °C 5.9 °C 1029.3 hPa Calm     86 % 0 mm
09:52 8.3 °C 6.1 °C 1029.3 hPa Calm     86 % 0 mm
09:57 8.4 °C 5.9 °C 1029.3 hPa Calm     84 % 0 mm
10:02 8.6 °C 6.1 °C 1029.3 hPa Calm     84 % 0 mm
10:07 8.8 °C 6.2 °C 1029 hPa Calm     84 % 0 mm
10:12 8.9 °C 6.4 °C 1029 hPa Calm     84 % 0 mm
10:17 9.1 °C 6.3 °C 1029 hPa Calm     83 % 0 mm
10:22 9.3 °C 6.4 °C 1029 hPa Calm     82 % 0 mm
10:27 9.4 °C 6.4 °C 1029 hPa Calm     82 % 0 mm
10:32 9.6 °C 6.4 °C 1029 hPa Calm     81 % 0 mm
10:38 9.7 °C 6.4 °C 1029 hPa Calm     80 % 0 mm
10:43 9.8 °C 6.5 °C 1029.3 hPa Calm     80 % 0 mm
10:48 9.9 °C 6.4 °C 1029 hPa Calm     79 % 0 mm
10:53 10.1 °C 6.6 °C 1029 hPa Calm     79 % 0 mm
10:58 10.2 °C 6.3 °C 1029.3 hPa Calm     77 % 0 mm
11:03 10.3 °C 5.9 °C 1029.3 hPa SE 1.3 km/h 3.7 km/h 74 % 0 mm
11:08 10.5 °C 5.9 °C 1029.3 hPa Calm     73 % 0 mm
11:13 10.7 °C 5.8 °C 1029.3 hPa Calm     72 % 0 mm
11:18 10.8 °C 6.1 °C 1029.3 hPa Calm     73 % 0 mm
11:23 10.8 °C 6.2 °C 1029.3 hPa Calm     73 % 0 mm
11:28 10.9 °C 6.7 °C 1029 hPa Calm     75 % 0 mm
11:33 11.1 °C 6.2 °C 1029 hPa Calm     72 % 0 mm
11:38 11.1 °C 5.8 °C 1029 hPa Calm     70 % 0 mm
11:43 11.2 °C 6.1 °C 1029 hPa Calm     71 % 0 mm
11:48 11.3 °C 6.6 °C 1029 hPa Calm     73 % 0 mm
11:53 11.3 °C 6.7 °C 1029 hPa Calm     73 % 0 mm
11:58 11.5 °C 6.6 °C 1028.7 hPa Calm     72 % 0 mm
12:03 11.6 °C 6.1 °C 1028.7 hPa Calm     69 % 0 mm
12:08 11.8 °C 6.5 °C 1028.7 hPa Calm     70 % 0 mm
12:13 11.9 °C 6.8 °C 1028.7 hPa Calm     71 % 0 mm
12:18 12 °C 6.9 °C 1028.7 hPa Calm     71 % 0 mm
12:23 12.1 °C 7.2 °C 1028.7 hPa Calm     72 % 0 mm
12:28 12.3 °C 7.8 °C 1028.7 hPa Calm     74 % 0 mm
12:33 12.3 °C 7.8 °C 1028.7 hPa Calm     74 % 0 mm
12:38 12.4 °C 7.3 °C 1028.3 hPa Calm     71 % 0 mm
12:43 12.6 °C 7.4 °C 1028.7 hPa Calm     71 % 0 mm
12:48 12.6 °C 7.1 °C 1028.3 hPa Calm     69 % 0 mm
12:53 12.7 °C 7.3 °C 1028.3 hPa Calm     70 % 0 mm
12:58 12.7 °C 6.7 °C 1028.3 hPa Calm     67 % 0 mm
13:04 12.7 °C 6.9 °C 1028.3 hPa SE 0.2 km/h   68 % 0 mm
13:09 12.7 °C 6.7 °C 1028.7 hPa SE 0.6 km/h 3.7 km/h 67 % 0 mm
13:14 12.7 °C 6.9 °C 1028.3 hPa Calm   1.9 km/h 68 % 0 mm
13:19 12.8 °C 7.4 °C 1028.3 hPa Calm     70 % 0 mm
13:24 12.8 °C 7.2 °C 1028.3 hPa Calm     69 % 0 mm
13:29 12.8 °C 7.2 °C 1028.3 hPa Calm   1.9 km/h 69 % 0 mm
13:34 12.8 °C 7.2 °C 1028.7 hPa Calm     69 % 0 mm
13:39 12.8 °C 7.2 °C 1028.3 hPa NNE 1.8 km/h 5.6 km/h 69 % 0 mm
13:44 12.8 °C 7 °C 1028.3 hPa NNE 0.2 km/h 1.9 km/h 68 % 0 mm
13:49 12.8 °C 6.8 °C 1028.3 hPa ENE 2.1 km/h 5.6 km/h 67 % 0 mm
13:54 12.8 °C 6.3 °C 1028.3 hPa Calm     65 % 0 mm
13:59 12.8 °C 6.6 °C 1028.3 hPa Calm   5.6 km/h 66 % 0 mm
14:05 12.8 °C 6.4 °C 1028.3 hPa NNE 0.6 km/h 1.9 km/h 65 % 0 mm
14:10 12.8 °C 6.8 °C 1028.3 hPa NE 0.6 km/h 3.7 km/h 67 % 0 mm
14:15 12.9 °C 6.9 °C 1028.3 hPa NE 1.3 km/h 3.7 km/h 67 % 0 mm
14:20 12.9 °C 6.5 °C 1028.3 hPa Calm   1.9 km/h 65 % 0 mm
14:25 13 °C 6.8 °C 1028.3 hPa NE 0.6 km/h 1.9 km/h 66 % 0 mm
14:30 13 °C 6.8 °C 1028.3 hPa NE 0.6 km/h 1.9 km/h 66 % 0 mm
14:35 13.1 °C 7.1 °C 1028.3 hPa Calm     67 % 0 mm
14:40 13.1 °C 7.5 °C 1028 hPa Calm     69 % 0 mm
14:45 13.1 °C 7.5 °C 1028 hPa Calm     69 % 0 mm
14:50 13.1 °C 7.3 °C 1028 hPa NE 0.6 km/h 3.7 km/h 68 % 0 mm
14:55 13 °C 7.2 °C 1028 hPa Calm     68 % 0 mm
15:00 13 °C 7.7 °C 1028 hPa NE 1.9 km/h 5.6 km/h 70 % 0 mm
15:05 13 °C 8.1 °C 1028 hPa ENE 0.8 km/h 3.7 km/h 72 % 0 mm
15:10 13.1 °C 7.5 °C 1028 hPa Calm     69 % 0 mm
15:15 13.1 °C 7.6 °C 1028 hPa Calm     69 % 0 mm
15:20 13.2 °C 8 °C 1028 hPa ENE 0.2 km/h 1.9 km/h 71 % 0 mm
15:25 13.3 °C 7.9 °C 1028 hPa ENE 0.2 km/h 1.9 km/h 70 % 0 mm
15:30 13.3 °C 8.8 °C 1028 hPa NE 0.2 km/h 1.9 km/h 74 % 0 mm
15:35 13.4 °C 8.9 °C 1028 hPa NE 0.6 km/h 1.9 km/h 74 % 0 mm
15:40 13.5 °C 8.9 °C 1028 hPa NE 0.8 km/h 1.9 km/h 74 % 0 mm
15:45 13.5 °C 8.9 °C 1028 hPa ENE 0.5 km/h 1.9 km/h 74 % 0 mm
15:50 13.5 °C 9.2 °C 1028 hPa ENE 1.1 km/h 5.6 km/h 75 % 0 mm
15:55 13.4 °C 9.1 °C 1027.7 hPa ENE 1 km/h 5.6 km/h 75 % 0 mm
16:00 13.4 °C 9.3 °C 1027.7 hPa ENE 0.3 km/h 1.9 km/h 76 % 0 mm
16:05 13.4 °C 9.2 °C 1027.7 hPa ENE 2.1 km/h 2.1 km/h 76 % 0 mm
16:10 13.3 °C 9.2 °C 1027.7 hPa ENE 0.6 km/h 1.9 km/h 76 % 0 mm
16:16 13.3 °C 9.4 °C 1027.7 hPa ENE 1.6 km/h 8 km/h 77 % 0 mm
16:21 13.3 °C 9.5 °C 1027.3 hPa ENE 1.6 km/h 6.4 km/h 78 % 0 mm
16:26 13.2 °C 9.3 °C 1027.7 hPa Calm   1.6 km/h 77 % 0 mm
16:31 13.2 °C 8.9 °C 1027.7 hPa Calm   1.6 km/h 75 % 0 mm
16:36 13.2 °C 9.3 °C 1027.7 hPa East 1.6 km/h 1.6 km/h 77 % 0 mm
16:41 13.2 °C 8.8 °C 1027.7 hPa Calm   1.9 km/h 75 % 0 mm
16:46 13.2 °C 9 °C 1027.7 hPa Calm   1.6 km/h 76 % 0 mm
16:51 13.1 °C 9.2 °C 1027.3 hPa Calm   3.2 km/h 77 % 0 mm
16:56 13.1 °C 8.9 °C 1027.7 hPa Calm   3.2 km/h 76 % 0 mm
17:01 13 °C 9.1 °C 1027.3 hPa Calm     77 % 0 mm
17:06 12.9 °C 9 °C 1027.3 hPa East 0.2 km/h 1.9 km/h 77 % 0 mm
17:11 12.9 °C 8.9 °C 1027.3 hPa Calm   1.9 km/h 77 % 0 mm
17:16 12.8 °C 8.9 °C 1027.3 hPa Calm     77 % 0 mm
17:21 12.8 °C 8.8 °C 1027.3 hPa Calm     77 % 0 mm
17:26 12.7 °C 8.6 °C 1027.3 hPa Calm   1.6 km/h 76 % 0 mm
17:31 12.7 °C 8.3 °C 1027 hPa Calm     75 % 0 mm
17:36 12.6 °C 8.2 °C 1027.3 hPa Calm     75 % 0 mm
17:41 12.6 °C 8.1 °C 1027.3 hPa Calm     74 % 0 mm
17:46 12.5 °C 8.2 °C 1027.3 hPa Calm     75 % 0 mm
17:51 12.4 °C 7.9 °C 1027.3 hPa Calm     74 % 0 mm
17:56 12.3 °C 7.6 °C 1027.3 hPa Calm     73 % 0 mm
18:01 12.2 °C 7.5 °C 1027.3 hPa Calm     73 % 0 mm
18:06 12.2 °C 7.7 °C 1027.3 hPa Calm     74 % 0 mm
18:11 12.1 °C 7.6 °C 1027.3 hPa Calm   1.9 km/h 74 % 0 mm
18:16 11.9 °C 7.8 °C 1027.3 hPa Calm   1.9 km/h 76 % 0 mm
18:21 11.9 °C 7.8 °C 1027.3 hPa Calm     76 % 0 mm
18:26 11.8 °C 7.7 °C 1027 hPa Calm     76 % 0 mm
18:31 11.7 °C 7.6 °C 1027.3 hPa Calm     76 % 0 mm
18:36 11.7 °C 7.6 °C 1027.3 hPa Calm     76 % 0 mm
18:41 11.6 °C 7.5 °C 1027.7 hPa Calm     76 % 0 mm
18:46 11.6 °C 7.4 °C 1027.7 hPa Calm     76 % 0 mm
18:51 11.5 °C 7.4 °C 1027.7 hPa Calm     76 % 0 mm
18:56 11.4 °C 7.3 °C 1027.7 hPa Calm     76 % 0 mm
19:01 11.4 °C 7.3 °C 1027.7 hPa Calm     76 % 0 mm
19:06 11.3 °C 7.4 °C 1027.7 hPa Calm     77 % 0 mm
19:11 11.3 °C 7.6 °C 1027.7 hPa Calm     78 % 0 mm
19:16 11.3 °C 7.8 °C 1027.7 hPa Calm     79 % 0 mm
19:21 11.2 °C 7.7 °C 1027.7 hPa Calm   1.9 km/h 79 % 0 mm
19:27 11.2 °C 7.8 °C 1027.7 hPa Calm     80 % 0 mm
19:32 11.1 °C 7.8 °C 1027.7 hPa Calm   1.6 km/h 80 % 0 mm
19:37 11.1 °C 7.7 °C 1027.7 hPa Calm     80 % 0 mm
19:42 11 °C 7.7 °C 1027.7 hPa Calm     80 % 0 mm
19:47 10.9 °C 7.6 °C 1027.7 hPa Calm     80 % 0 mm
19:52 10.9 °C 7.6 °C 1027.7 hPa Calm     80 % 0 mm
19:57 10.8 °C 7.5 °C 1027.7 hPa Calm     80 % 0 mm
20:02 10.8 °C 7.4 °C 1027.7 hPa Calm   1.9 km/h 80 % 0 mm
20:07 10.8 °C 7.7 °C 1027.7 hPa East 1.1 km/h 3.2 km/h 81 % 0 mm
20:12 10.8 °C 7.7 °C 1027.7 hPa East 2.1 km/h 5.6 km/h 81 % 0 mm
20:17 10.8 °C 7.7 °C 1027.7 hPa SE 3.4 km/h 5.6 km/h 81 % 0 mm
20:22 10.8 °C 7.7 °C 1027.7 hPa SE 1.3 km/h 3.7 km/h 81 % 0 mm
20:27 10.9 °C 7.8 °C 1027.3 hPa SE 1.1 km/h 3.7 km/h 81 % 0 mm
20:32 10.9 °C 7.6 °C 1027.3 hPa Calm   1.6 km/h 80 % 0 mm
20:37 11.1 °C 7.7 °C 1027.3 hPa SE 0.8 km/h 3.7 km/h 80 % 0 mm
20:42 11.1 °C 7.8 °C 1027.3 hPa Calm   3.7 km/h 80 % 0 mm
20:47 11.2 °C 7.9 °C 1027 hPa SE 1.1 km/h 5.6 km/h 80 % 0 mm
20:52 11.3 °C 7.9 °C 1027 hPa SE 1.3 km/h 3.7 km/h 80 % 0 mm
20:57 11.3 °C 7.8 °C 1027 hPa SE 1.4 km/h 5.6 km/h 79 % 0 mm
21:02 11.4 °C 7.9 °C 1027 hPa SE 0.8 km/h 4.8 km/h 79 % 0 mm
21:07 11.4 °C 7.9 °C 1027 hPa Calm   3.7 km/h 79 % 0 mm
21:12 11.4 °C 7.9 °C 1027.3 hPa Calm   1.6 km/h 79 % 0 mm
21:17 11.4 °C 8.1 °C 1027.3 hPa SE 1.1 km/h 3.7 km/h 80 % 0 mm
21:22 11.3 °C 8 °C 1027.3 hPa SE 0.3 km/h 1.9 km/h 80 % 0 mm
21:27 11.3 °C 8 °C 1027.3 hPa Calm     80 % 0 mm
21:30 11.3 °C 8 °C 1027.3 hPa SE 0.2 km/h 1.9 km/h 80 % 0 mm
21:35 11.3 °C 7.9 °C 1027.3 hPa Calm     80 % 0 mm
21:40 11.3 °C 7.9 °C 1027.3 hPa SE 0.3 km/h 1.9 km/h 80 % 0 mm
21:45 11.2 °C 7.9 °C 1027.3 hPa SE 0.2 km/h 1.9 km/h 80 % 0 mm
21:50 11.2 °C 7.8 °C 1027 hPa Calm     80 % 0 mm
21:55 11.2 °C 8 °C 1027 hPa Calm     81 % 0 mm
22:00 11.1 °C 7.9 °C 1027 hPa Calm     81 % 0 mm
22:05 11.1 °C 7.9 °C 1027 hPa Calm     81 % 0 mm
22:10 11.1 °C 7.9 °C 1027 hPa Calm     81 % 0 mm
22:15 11 °C 8.1 °C 1027 hPa Calm     82 % 0 mm
22:20 10.9 °C 8 °C 1027 hPa Calm     82 % 0 mm
22:25 10.9 °C 7.9 °C 1027 hPa Calm     82 % 0 mm
22:30 10.9 °C 8.1 °C 1027 hPa Calm     83 % 0 mm
22:35 10.9 °C 8.4 °C 1027.3 hPa Calm     85 % 0 mm
22:40 10.9 °C 8.4 °C 1027 hPa Calm     85 % 0 mm
22:45 10.8 °C 8.4 °C 1027 hPa Calm     85 % 0 mm
22:50 10.8 °C 8.6 °C 1026.6 hPa Calm     86 % 0 mm
22:55 10.8 °C 8.6 °C 1026.6 hPa Calm     86 % 0 mm
23:00 10.8 °C 8.6 °C 1027 hPa Calm     86 % 0 mm
23:05 10.8 °C 8.6 °C 1026.6 hPa Calm     86 % 0 mm
23:10 10.7 °C 8.5 °C 1026.6 hPa Calm     86 % 0 mm
23:15 10.7 °C 8.5 °C 1026.6 hPa Calm     86 % 0 mm
23:20 10.7 °C 8.4 °C 1026.6 hPa Calm     86 % 0 mm
23:24 10.7 °C 8.4 °C 1026.6 hPa Calm     86 % 0 mm
23:30 10.6 °C 8.6 °C 1026.6 hPa Calm     87 % 0 mm
23:35 10.6 °C 8.5 °C 1026.6 hPa Calm     87 % 0 mm
23:39 10.6 °C 8.7 °C 1026.6 hPa Calm     88 % 0 mm
23:44 10.6 °C 8.7 °C 1026.6 hPa Calm     88 % 0 mm
23:50 10.6 °C 8.9 °C 1026.6 hPa SE 0.3 km/h 3.2 km/h 89 % 0 mm
23:55 10.6 °C 9.1 °C 1026.6 hPa SE 1.8 km/h 5.6 km/h 90 % 0 mm
Crab Meadow Weather
Compliments of Weather Underground - 3 mb

Script developed by  Jim McMurry - jmcmurry@mwt.net Adapted for the template by  Wim van der Kuil - Leuven-Template.eu

Weather Terms: Advisory - An advisory is issued when a hazardous weather or hydrologic event is occurring, imminent or likely. Advisories are for less serious conditions than warnings, that cause significant inconvenience and if caution is not exercised, could lead to situations that may threaten life or property.